Weather in Gorodetskoye

Russia / Oryol Oblast     52°15′14″N   37°15′12″E
temp.,
°C
wind,
m/s
gust,
m/s
humid.,
%
clouds,
%
prec.,
mm/h
press.,
hPa
HPBL,
m
15 may, sat
sat1500:00+15sse349579 4.7 100967
03:00+14ssw22944 5.1 100933
06:00+14ssw379060 0.0 1009145
09:00+18ssw697684 0.0 1011541
12:00+20ssw67600 0.0 10111250
15:00+21ssw79551 0.0 10112147
18:00+19sw59704 0.5 1012786
21:00+14ssw36845 0.5 101286
16 may, sun
sun1600:00+12ssw34885 0.0 101357
03:00+12s239018 0.0 101426
06:00+13ssw2484100 0.0 101491
09:00+17s35744 0.0 1014360
12:00+22ssw35564 0.0 10141517
15:00+23ssw3448100 0.0 10142015
18:00+23se126179 0.0 1013232
21:00+17ne3369100 0.0 101315
17 may, mon
mon1700:00+15ene468117 0.7 101373
03:00+13ene4109125 0.7 1012164
06:00+15e513895 0.0 1011275
09:00+20ese610686 0.0 1010431
12:00+24ese713543 0.0 10091081
15:00+25se8165427 0.0 10081842
18:00+23se7146386 0.0 1007689
21:00+19se513745 0.0 1007292
18 may, tue
tue1800:00+16se4128625 0.0 1007232
03:00+15se4994100 0.0 1006154
06:00+16sse499299 0.0 1007287
09:00+19s6980100 0.0 1007821
12:00+19s587295 0.1 10081256
15:00+19s487899 1.4 1007498
18:00+20s4773100 0.3 1007976
21:00+15sse412935 2.6 1007241
19 may, wed
wed1900:00+14sse389411 0.0 1006155
03:00+14s41193100 0.3 1006302
06:00+13s4896100 2.1 1006456
09:00+13ssw5993100 2.2 1007606
12:00+15wsw688382 0.5 1008925
15:00+16wsw797998 1.8 10091181
18:00+17sw4673100 0.1 1010899
21:00+13wsw2286100 0.3 101129